This demonstration page uses our WeatherBlox Daily Observations layout. Learn more.

Left ArrowRight Arrow

34.16533, -84.80231

Hourly Observations for March 12, 2020

Temp ( °F °C ) Dew Point ( °F °C ) Humidity (%) Winds ( mph kmh ) Pressure ( in mb ) Visibility ( mi km ) Precip ( " mm )
12:42 am 00:42 Cloudy 59 15 57 13.9 93 93 Calm 30.04 1017 10 16 0.00 0.00
12:53 am 00:53 Cloudy 60 15.6 57 13.9 90 90 Calm 30.01 1016 10 16 0.00 0.00
1:08 am 01:08 Cloudy 61 16.1 57 13.9 87 87 Calm 30.03 1017 10 16 0.00 0.00
1:53 am 01:53 Cloudy 60 15.6 56 13.3 86 86 Calm 30.01 1016 10 16 0.00 0.00
2:53 am 02:53 Cloudy 60 15.6 56 13.3 86 86 Calm 30.00 1016 10 16 0.00 0.00
3:48 am 03:48 Cloudy with Mist and Fog 59 15 57 14 94 94 Calm 30.02 1016 5 8 0.03 0.76
3:53 am 03:53 Cloudy with Mist and Fog 59 15 57 13.9 93 93 Calm 29.99 1016 5 8 0.03 0.76
4:53 am 04:53 Cloudy with Light Rain 60 15.6 58 14.4 93 93 S 3 6 29.97 1015 7 11 0.03 0.76
5:40 am 05:40 Cloudy with Mist and Fog 60 15.6 57 13.9 90 90 Calm 29.99 1016 5 8 0.00 0.00
5:49 am 05:49 Cloudy with Mist and Fog 61 16 57 14 88 88 Calm 29.99 1016 6 10 0.00 0.00
5:53 am 05:53 Cloudy with Mist and Fog 60 15.6 58 14.4 93 93 Calm 29.97 1015 5 8 0.00 0.00
6:53 am 06:53 Cloudy with Mist and Fog 61 16.1 58 14.4 90 90 Calm 29.98 1015 6 10 0.00 0.00
7:53 am 07:53 Cloudy 61 16.1 59 15 93 93 Calm 29.98 1015 7 11 0.00 0.00
8:53 am 08:53 Cloudy with Mist and Fog 62 16.7 59 15 90 90 Calm 29.99 1016 5 8 0.00 0.00
9:27 am 09:27 Cloudy with Mist and Fog 63 17.2 60 15.6 90 90 Calm 30.01 1016 6 10 0.00 0.00
9:42 am 09:42 Cloudy 64 17.8 61 16.1 90 90 Calm 30.01 1016 7 11 0.00 0.00
9:53 am 09:53 Cloudy 65 18.3 61 16.1 87 87 Calm 29.99 1016 9 14 0.00 0.00
10:13 am 10:13 Cloudy 65 18.3 61 16.1 87 87 Calm 30.02 1016 9 14 0.00 0.00
10:53 am 10:53 Cloudy 67 19.4 61 16.1 81 81 Calm 30.01 1016 10 16 0.00 0.00
11:15 am 11:15 Cloudy 67 19.4 62 16.7 84 84 ENE 3 6 30.01 1016 10 16 0.00 0.00
11:53 am 11:53 Cloudy 69 20.6 61 16.1 76 76 S 3 6 30.00 1016 10 16 0.00 0.00
12:53 pm 12:53 Mostly Cloudy 70 21.1 62 16.7 76 76 Calm 29.98 1015 10 16 0.00 0.00
1:53 pm 13:53 Cloudy 72 22.2 63 17.2 73 73 SE 8 13 29.96 1015 10 16 0.00 0.00
2:26 pm 14:26 Cloudy 73 22.8 62 16.7 69 69 S 8 13 29.96 1014 10 16 0.00 0.00
2:53 pm 14:53 Cloudy 73 22.8 62 16.7 69 69 S 6 9 29.94 1014 10 16 0.00 0.00
3:53 pm 15:53 Mostly Sunny 76 24.4 60 15.6 58 58 SSE 10 17 29.90 1013 10 16 0.00 0.00
4:53 pm 16:53 Mostly Cloudy 76 24.4 59 15 56 56 S 10 17 29.88 1012 10 16 0.00 0.00
5:53 pm 17:53 Mostly Sunny 75 23.9 58 14.4 55 55 S 8 13 29.88 1012 10 16 0.00 0.00
6:53 pm 18:53 Sunny 75 23.9 57 13.9 54 54 SSE 7 11 29.88 1012 10 16 0.00 0.00
7:53 pm 19:53 Clear 72 22.2 58 14.4 61 61 S 6 9 29.88 1012 10 16 0.00 0.00
8:53 pm 20:53 Clear 68 20 57 13.9 68 68 SSE 5 7 29.89 1012 10 16 0.00 0.00
9:53 pm 21:53 Clear 63 17.2 57 13.9 81 81 SSE 6 9 29.90 1012 10 16 0.00 0.00
10:53 pm 22:53 Mostly Clear 65 18.3 57 13.9 76 76 S 5 7 29.92 1013 10 16 0.00 0.00
11:53 pm 23:53 Clear 66 18.9 56 13.3 70 70 Calm 29.92 1013 10 16 0.00 0.00

Powered by AerisWeather